sat.trackr.live / text

‹ back to catalog

IRIDIUM 106

NORAD 41917 · 2017-003A

PAYLOAD ACTIVE UNKNOWN

§ Identity

Operator
Country
US
Launch date
2017-01-14
Launch site
AFWTR
Launch vehicle
Mass (kg)
RCS (m²)
2.80

Purposes: comms

External: N2YO · Heavens-Above · Gunter

§ Orbital elements

Epoch: 2026-05-25T03:23:58.221312Z

Period
100.40 min
Inclination
86.3950°
Eccentricity
0.0002129
Mean motion
14.34218026 rev/d
Perigee alt
776.1 km
Apogee alt
779.2 km
Semi-major
7,155.8 km
B*
1.8572e-5
RAAN
98.1900°
Arg perigee
76.5777°
Mean anomaly
283.5656°
Rev number
48,990

§ Raw data

IRIDIUM 1061 41917U 17003A   26145.14164608  .00000072  00000+0  18572-4 0  99962 41917  86.3950  98.1900 0002129  76.5777 283.5656 14.34218026489901

JSON: /api/v1/satellites/41917 · /tle

For live sub-satellite position, see the globe view (requires WebGL).

§ Visibility from observer

Set your observer location to see the next 7 days of passes ≥ 10°. The values pass through the URL so the page stays shareable.

No JS? Fill the form by hand. The geolocation button needs JavaScript.